Date,TemperatureHighF,TemperatureAvgF,TemperatureLowF,DewpointHighF,DewpointAvgF,DewpointLowF,HumidityHigh,HumidityAvg,HumidityLow,PressureMaxIn,PressureMinIn,WindSpeedMaxMPH,WindSpeedAvgMPH,GustSpeedMaxMPH,PrecipitationSumIn
2014-1-1,32.4,27.1,23.2,11.6,4.7,-4.5,54,38,28,30.18,29.96,9,2,16,0.00
2014-1-2,30.0,26.1,15.4,20.8,13.9,7.9,79,61,47,29.96,29.52,18,2,24,0.04
2014-1-3,21.7,10.3,-2.0,7.7,-18.5,-34.9,72,31,10,30.26,29.57,17,6,27,0.09
2014-1-4,31.5,12.2,-3.5,-5.7,-18.8,-29.2,49,28,10,30.24,30.04,14,2,19,0.00
2014-1-5,34.7,19.6,2.3,31.6,2.5,-19.6,94,53,10,30.06,29.41,5,1,8,0.00
2014-1-6,40.8,28.7,3.9,39.7,4.7,-40.3,99,47,10,29.80,29.23,25,8,40,10.65
2014-1-7,8.8,2.8,-2.7,-21.4,-35.8,-45.6,27,14,10,30.19,29.80,18,10,34,11.14
2014-1-8,21.9,13.1,0.9,-2.8,-18.6,-29.0,53,24,10,30.34,30.18,9,2,14,0.00
2014-1-9,38.1,23.6,12.0,7.0,-2.7,-19.6,70,36,10,30.45,30.27,7,1,11,0.00
2014-1-10,37.8,30.6,25.7,28.4,21.1,4.7,85,69,39,30.31,29.91,6,0,8,0.08
2014-1-11,46.0,37.7,32.4,45.8,36.8,28.4,99,96,85,29.91,29.16,10,1,18,0.45
2014-1-12,41.0,37.7,27.5,20.9,14.5,11.0,71,39,30,29.88,29.43,18,6,27,0.08
2014-1-13,51.6,37.3,23.9,30.2,20.5,11.7,91,56,20,29.89,29.60,9,1,14,0.00
2014-1-14,44.8,39.9,29.5,43.9,37.9,29.2,99,93,64,29.68,29.48,4,0,5,0.24
2014-1-15,43.5,33.4,25.7,40.2,26.0,4.5,99,78,29,29.76,29.67,8,1,13,0.01
2014-1-16,42.3,31.9,22.1,12.9,-0.8,-14.0,66,28,10,29.79,29.66,10,2,15,0.00
2014-1-17,43.0,31.1,22.6,21.1,12.8,2.4,81,50,20,29.73,29.62,8,0,11,0.00
2014-1-18,31.1,24.9,16.7,28.0,2.0,-23.1,89,44,10,29.74,29.61,14,5,26,0.01
2014-1-19,38.1,25.1,16.3,7.4,1.9,-7.2,65,39,14,29.72,29.45,11,3,21,0.00
2014-1-20,40.1,32.1,21.2,14.6,8.2,-3.3,64,39,20,29.72,29.40,16,3,25,0.01
2014-1-21,27.0,16.3,3.0,8.4,-8.5,-33.4,66,34,13,29.81,29.69,17,6,25,0.00
2014-1-22,18.1,6.9,0.5,-13.6,-27.1,-36.9,43,21,10,29.84,29.73,18,5,27,0.02
2014-1-23,21.9,11.1,-0.2,-3.0,-13.6,-29.1,54,34,10,30.14,29.84,15,4,22,0.00
2014-1-24,21.9,13.6,6.3,-9.8,-24.5,-32.5,40,18,10,30.23,29.73,17,6,27,0.00
2014-1-25,28.9,21.4,16.7,11.6,-18.6,-30.3,63,20,10,29.73,29.18,21,7,29,0.33
2014-1-26,26.6,19.1,11.8,-6.5,-21.3,-33.7,32,15,10,29.68,29.40,16,5,26,0.01
2014-1-27,32.7,23.8,12.2,20.0,-14.5,-35.9,65,19,10,29.97,29.35,21,6,33,1.26
2014-1-28,14.7,9.1,2.5,-29.9,-34.1,-38.6,19,12,10,30.23,29.97,17,4,31,0.39
2014-1-29,23.5,13.4,3.6,-24.9,-32.0,-38.3,19,11,10,30.12,29.93,14,4,23,0.00
2014-1-30,31.5,18.1,0.9,-11.7,-22.2,-32.2,51,18,10,30.23,29.90,16,3,20,0.00
2014-1-31,34.0,28.2,21.9,3.8,-15.5,-25.5,32,14,10,30.02,29.85,9,1,14,0.00
2014-2-1,50.7,36.7,25.0,12.1,0.2,-12.0,53,25,10,30.07,29.38,13,2,18,0.00
2014-2-2,43.3,35.3,28.8,32.0,23.6,10.4,76,62,35,29.54,29.34,5,0,7,0.02
2014-2-3,37.8,29.4,14.9,27.2,20.4,7.7,88,70,48,29.77,29.51,10,1,14,0.00
2014-2-4,34.5,20.3,3.7,11.9,-0.3,-17.5,77,45,10,29.91,29.63,6,1,8,0.06
2014-2-5,37.4,28.2,23.9,33.5,20.3,-0.5,99,74,33,29.66,29.06,24,3,36,0.02
2014-2-6,37.6,24.6,11.8,6.2,-7.7,-22.8,67,27,10,29.75,29.55,15,3,25,0.07
2014-2-7,37.8,21.1,4.8,0.7,-13.9,-28.0,68,28,10,29.75,29.65,12,3,18,0.01
2014-2-8,32.4,18.3,3.9,-4.3,-15.9,-28.2,49,24,10,29.77,29.59,6,1,9,0.00
2014-2-9,27.9,17.3,7.3,14.3,0.1,-17.1,74,49,15,29.62,29.39,12,1,17,0.00
2014-2-10,33.6,20.9,8.8,1.3,-12.8,-23.9,53,24,10,29.73,29.47,11,4,24,0.00
2014-2-11,28.0,15.7,0.9,-3.1,-19.2,-32.0,56,24,10,29.92,29.72,10,2,13,0.00
2014-2-12,26.1,10.7,-7.1,-11.2,-23.8,-31.4,43,23,10,29.97,29.66,8,2,11,0.00
2014-2-13,32.2,25.0,16.3,29.8,17.8,-10.5,92,75,29,29.66,28.73,14,4,21,0.00
2014-2-14,41.5,33.3,24.6,17.8,7.7,-14.0,57,36,10,29.18,28.73,21,6,36,0.67
2014-2-15,34.5,28.5,17.8,28.1,14.0,-12.0,89,60,19,29.34,29.11,17,4,26,0.07
2014-2-16,33.1,20.8,13.3,6.5,-6.2,-22.8,55,32,10,29.64,29.34,15,4,25,0.00
2014-2-17,36.1,22.0,10.4,-5.9,-17.7,-28.3,37,18,10,29.88,29.58,12,3,20,0.00
2014-2-18,43.2,29.9,20.7,22.4,8.7,-22.7,78,46,10,29.58,29.36,19,5,30,0.06
2014-2-19,49.1,33.8,16.9,29.8,16.5,7.9,83,52,26,29.52,29.10,18,3,30,0.08
2014-2-20,55.2,39.4,21.6,24.1,5.5,-9.0,86,34,10,29.67,29.34,13,2,20,0.01
2014-2-21,53.6,38.0,28.8,43.4,22.8,2.6,99,58,13,29.35,29.08,19,1,31,0.31
2014-2-22,59.2,42.6,27.0,23.5,1.2,-13.6,64,22,10,29.42,29.35,18,4,28,0.00
2014-2-23,56.1,39.0,24.1,16.6,6.7,-4.7,70,33,10,29.46,29.30,14,2,22,0.06
2014-2-24,38.5,30.6,25.5,7.8,-14.3,-21.7,28,14,10,29.91,29.30,22,7,31,1.31
2014-2-25,33.3,25.4,19.6,-0.5,-10.9,-23.0,34,21,10,29.90,29.76,17,4,27,0.01
2014-2-26,27.3,20.9,10.6,14.0,-12.6,-31.4,72,27,10,29.78,29.62,20,4,30,0.38
2014-2-27,27.1,17.0,7.7,6.2,-21.0,-37.3,49,19,10,29.97,29.45,21,7,39,4.39
2014-2-28,29.8,12.6,0.5,-19.7,-30.9,-39.5,31,12,10,30.21,29.97,8,3,13,0.00
2014-3-1,35.4,21.9,5.9,4.6,-13.3,-28.2,45,23,10,30.16,29.92,11,2,17,0.00
2014-3-2,36.9,30.8,25.3,20.2,5.1,-8.8,65,34,20,29.93,29.83,13,3,20,0.00
2014-3-3,25.3,16.4,10.9,-5.1,-27.5,-33.1,27,12,10,30.16,29.85,17,7,27,0.00
2014-3-4,34.5,18.6,3.6,-8.4,-19.0,-30.0,55,22,10,30.22,30.01,8,2,11,0.00
2014-3-5,35.1,25.7,16.5,-3.9,-16.5,-25.5,39,16,10,30.30,29.97,17,4,23,0.00
2014-3-6,36.1,22.4,10.0,-6.3,-17.1,-26.0,43,19,10,30.41,30.20,10,3,14,0.00
2014-3-7,48.6,31.1,18.5,17.1,-1.7,-25.2,69,29,10,30.21,29.74,7,1,10,0.00
2014-3-8,58.5,37.5,19.9,21.8,13.6,-1.9,83,45,10,29.75,29.64,12,3,21,0.00
2014-3-9,44.6,36.9,31.6,24.7,-3.3,-16.5,59,21,10,29.91,29.74,14,5,22,0.00
2014-3-10,61.2,43.1,30.4,22.6,4.8,-7.4,51,23,10,29.74,29.39,12,2,18,0.00
2014-3-11,71.4,52.0,34.7,27.8,16.0,0.5,67,30,10,29.50,29.38,11,2,14,0.00
2014-3-12,52.0,40.4,20.3,42.9,24.5,-10.6,88,55,24,29.44,28.82,23,4,40,4.06
2014-3-13,31.8,22.4,15.6,-10.0,-20.5,-30.3,30,14,10,29.92,29.33,27,10,37,4.54
2014-3-14,52.7,34.7,16.0,0.7,-8.1,-26.5,40,18,10,29.93,29.56,20,4,29,0.00
2014-3-15,55.6,47.7,37.4,21.8,0.3,-10.0,35,15,10,29.88,29.50,22,6,34,1.87
2014-3-16,37.4,29.9,25.2,0.8,-14.6,-22.7,34,14,10,30.04,29.87,20,5,24,0.00
2014-3-17,36.7,27.9,19.6,-14.7,-21.5,-28.0,10,10,10,29.93,29.81,12,3,16,0.00
2014-3-18,50.5,36.0,30.0,-4.8,-14.2,-19.9,16,11,10,30.02,29.86,11,3,14,0.00
2014-3-19,39.7,37.5,34.5,38.9,15.0,-16.1,99,52,10,30.01,29.61,11,3,18,0.02
2014-3-20,47.5,42.0,38.5,40.2,14.7,-8.7,99,43,10,29.77,29.55,21,6,35,0.63
2014-3-21,57.6,42.5,30.9,10.9,-0.5,-12.9,40,18,10,29.84,29.76,13,4,20,0.00
2014-3-22,62.4,44.6,29.8,22.8,7.2,-7.6,57,27,10,29.87,29.56,23,5,36,2.92
2014-3-23,41.4,34.6,23.9,15.5,-4.2,-24.8,52,22,10,30.02,29.82,18,5,29,0.00
2014-3-24,36.0,26.0,18.7,-12.3,-21.0,-27.2,21,11,10,30.09,29.92,17,5,26,0.00
2014-3-25,34.5,26.2,16.9,22.5,7.4,-19.6,83,48,10,29.93,29.68,14,1,21,0.01
2014-3-26,35.8,28.0,23.0,22.7,-7.3,-24.2,90,30,10,30.08,29.67,23,8,33,0.76
2014-3-27,45.9,31.8,14.0,3.6,-12.5,-26.5,47,16,10,30.19,29.93,15,4,23,0.00
2014-3-28,61.5,46.1,34.5,51.0,29.9,-12.9,99,61,10,29.93,29.70,17,3,26,0.30
2014-3-29,51.3,43.6,34.3,45.4,38.6,30.1,99,84,51,29.96,29.45,11,2,17,1.02
2014-3-30,44.8,38.6,33.6,44.5,29.1,19.5,99,70,47,29.68,29.42,23,9,33,0.50
2014-3-31,63.3,47.7,38.1,20.0,8.9,-5.2,47,25,10,29.96,29.68,29,8,39,0.60
2014-4-1,63.9,46.5,28.8,25.4,9.3,-4.0,75,28,10,29.97,29.73,10,2,15,0.00
2014-4-2,69.3,50.8,36.7,30.9,18.9,-0.6,76,38,10,29.92,29.76,8,2,14,0.00
2014-4-3,62.6,52.7,44.6,43.6,7.8,-7.6,91,22,10,29.97,29.75,9,2,13,0.26
2014-4-4,47.1,45.2,42.8,45.5,38.7,31.7,99,79,56,29.79,29.52,17,5,25,0.30
2014-4-5,48.2,43.2,38.1,43.3,16.9,-5.3,99,42,11,29.95,29.53,18,6,30,0.48
2014-4-6,64.2,44.6,27.1,19.4,4.4,-9.3,68,24,10,30.04,29.90,9,2,16,0.00
2014-4-7,50.0,39.8,32.4,45.2,29.4,4.3,99,69,19,29.97,29.36,14,2,19,0.40
2014-4-8,58.6,50.8,36.9,50.7,34.0,12.2,98,60,17,29.49,29.23,21,6,34,1.19
2014-4-9,64.4,47.3,30.6,39.7,14.4,-7.0,99,43,10,29.84,29.48,17,4,23,0.00
2014-4-10,70.3,52.2,28.6,25.0,11.8,-1.8,80,29,10,29.97,29.72,24,6,33,0.00
2014-4-11,68.7,57.4,50.2,53.0,29.3,1.4,88,44,10,29.85,29.69,14,3,24,0.12
2014-4-12,73.6,57.8,40.1,49.2,26.9,3.2,99,48,10,30.05,29.85,13,3,18,0.01
2014-4-13,84.6,70.2,58.6,40.0,27.0,5.2,49,23,10,29.89,29.68,21,6,28,0.00
2014-4-14,77.4,72.0,65.5,42.6,34.1,22.2,43,26,14,29.71,29.52,25,8,40,0.13
2014-4-15,71.6,53.4,33.4,62.3,39.6,-1.9,99,64,21,29.87,29.29,26,7,37,2.28
2014-4-16,49.3,35.4,26.2,10.5,-9.1,-21.3,37,15,10,30.35,29.86,19,7,27,0.02
2014-4-17,57.0,42.6,26.4,19.6,3.3,-11.1,61,25,10,30.45,30.30,17,5,24,0.00
2014-4-18,57.0,44.3,30.7,27.7,13.0,-1.3,75,33,10,30.38,30.04,13,3,18,0.00
2014-4-19,65.7,50.3,34.3,37.2,13.3,-5.2,87,33,10,30.17,30.04,18,4,24,0.00
2014-4-20,71.6,52.9,32.5,28.3,10.9,-2.4,76,26,10,30.24,30.07,10,3,18,0.00
2014-4-21,73.6,56.6,35.4,25.5,11.4,-1.8,64,22,10,30.09,29.63,12,3,16,0.00
2014-4-22,69.8,56.5,48.7,46.8,19.7,-3.3,65,27,10,29.63,29.34,17,3,28,0.24
2014-4-23,55.6,47.8,37.0,20.9,15.5,4.7,50,28,15,29.78,29.46,21,8,30,0.81
2014-4-24,65.7,49.5,35.1,23.2,-1.7,-13.0,61,13,10,29.90,29.77,19,5,25,0.00
2014-4-25,65.5,49.6,35.2,40.4,15.3,-6.7,79,32,10,29.84,29.54,14,4,25,0.11
2014-4-26,74.5,57.6,45.7,45.2,20.4,-3.1,91,33,10,29.75,29.47,23,6,42,3.84
2014-4-27,63.5,51.9,44.4,21.2,8.7,-2.2,36,19,10,29.96,29.75,18,5,26,0.00
2014-4-28,66.9,51.9,33.4,40.5,16.1,0.2,81,33,10,29.96,29.77,10,2,14,0.00
2014-4-29,52.5,47.9,42.6,40.0,35.1,24.8,89,63,37,30.08,29.83,20,6,27,0.30
2014-4-30,53.2,48.4,42.4,52.6,45.4,39.7,99,89,75,30.08,29.61,8,1,18,0.71
2014-5-1,75.2,61.5,52.3,62.0,37.6,8.9,99,55,10,29.64,29.52,19,4,27,0.25
2014-5-2,63.5,54.2,42.3,42.4,22.3,3.2,89,39,10,29.67,29.58,13,3,24,0.00
2014-5-3,69.1,56.0,42.8,39.4,23.9,6.0,73,37,10,29.68,29.51,15,3,24,0.00
2014-5-4,62.8,54.2,49.3,37.3,18.8,1.0,61,29,10,29.74,29.58,21,6,32,1.48
2014-5-5,68.9,55.1,43.0,28.1,12.8,-1.6,46,22,10,29.82,29.68,14,4,23,0.00
2014-5-6,76.1,57.0,40.8,30.5,15.2,1.0,66,26,10,29.90,29.70,16,2,21,0.00
2014-5-7,67.8,54.1,38.3,41.3,21.1,1.7,72,36,10,30.04,29.90,8,1,12,0.00
2014-5-8,88.3,66.9,50.9,48.0,37.6,20.2,89,44,10,29.96,29.77,8,2,13,0.00
2014-5-9,78.6,67.9,57.2,55.0,49.7,41.1,90,55,27,29.92,29.70,11,4,17,0.00
2014-5-10,79.5,69.8,62.8,64.2,52.4,36.6,95,57,22,29.74,29.66,16,4,24,0.01
2014-5-11,85.8,69.6,53.8,54.9,32.3,12.3,93,37,10,29.90,29.73,13,3,17,0.00
2014-5-12,83.5,67.9,50.0,56.2,38.4,16.0,86,43,10,29.93,29.84,8,1,14,0.00
2014-5-13,93.0,72.3,58.5,60.4,47.8,26.4,99,52,10,29.97,29.83,15,3,21,0.00
2014-5-14,68.7,62.5,53.6,60.7,47.2,33.1,83,58,32,30.06,29.93,11,3,16,0.00
2014-5-15,82.6,70.4,65.3,67.7,58.5,46.8,99,69,30,29.95,29.69,23,6,30,0.48
2014-5-16,71.4,60.9,52.7,63.9,50.0,34.2,99,70,44,29.75,29.56,17,5,27,1.78
2014-5-17,68.2,54.8,44.2,45.8,25.6,5.0,86,40,10,29.97,29.72,12,2,20,0.00
2014-5-18,66.4,53.0,40.8,47.8,25.7,4.1,97,48,10,30.07,29.97,14,2,19,0.00
2014-5-19,74.8,56.2,37.0,44.2,25.7,6.1,99,46,10,30.09,29.94,21,2,32,0.11
2014-5-20,77.2,60.2,43.0,56.1,32.8,9.9,99,53,10,30.02,29.82,9,1,14,0.04
2014-5-21,63.0,58.4,54.5,62.7,58.0,53.5,99,98,92,29.85,29.67,7,1,9,0.46
2014-5-22,85.8,69.9,59.5,68.1,52.0,23.9,99,62,17,29.73,29.53,14,2,28,0.05
2014-5-23,76.6,61.8,47.8,55.5,37.4,11.1,99,51,10,29.83,29.68,17,2,24,0.02
2014-5-24,82.8,64.6,52.0,58.3,39.1,16.3,96,46,10,29.93,29.81,10,2,18,0.13
2014-5-25,86.9,66.1,50.0,61.8,39.6,14.0,99,55,10,29.97,29.84,9,1,17,0.01
2014-5-26,88.7,67.4,50.0,57.1,40.0,20.8,99,53,10,29.93,29.72,11,2,14,0.00
2014-5-27,79.7,66.0,58.8,67.2,57.5,44.5,99,77,29,29.75,29.64,3,0,8,0.09
2014-5-28,87.6,73.1,60.6,69.5,53.4,21.9,99,64,10,29.91,29.62,12,3,21,0.00
2014-5-29,60.6,56.6,54.1,52.7,46.9,43.0,93,70,57,30.00,29.90,11,4,16,0.00
2014-5-30,83.5,66.6,53.1,55.6,36.7,16.2,99,48,10,29.96,29.83,12,3,20,0.00
2014-5-31,80.6,65.4,49.1,52.8,30.5,11.0,99,39,10,30.07,29.93,18,3,25,0.01
2014-6-1,80.8,65.5,47.1,52.0,34.7,16.0,95,42,10,30.15,29.99,13,2,17,0.00
2014-6-2,86.0,71.5,55.4,62.3,43.7,32.6,85,40,20,30.05,29.80,14,3,21,0.00
2014-6-3,88.3,72.6,61.3,70.5,58.8,22.1,99,69,12,29.83,29.60,18,2,24,0.07
2014-6-4,83.5,69.0,57.9,65.4,45.1,16.7,99,56,10,29.72,29.55,9,1,14,0.11
2014-6-5,77.5,67.0,56.1,60.7,42.7,15.8,99,54,10,29.67,29.50,12,4,22,0.57
2014-6-6,79.9,67.2,56.1,50.6,31.6,14.7,80,32,10,29.80,29.65,13,3,20,0.00
2014-6-7,90.0,69.3,50.4,62.9,38.3,17.6,99,48,10,29.87,29.73,9,1,14,0.00
2014-6-8,84.6,69.7,53.4,65.8,50.1,32.5,99,59,17,29.77,29.61,14,3,21,0.06
2014-6-9,80.6,70.5,65.3,69.9,65.0,57.1,99,84,46,29.73,29.63,6,0,8,0.09
2014-6-10,90.7,74.8,66.2,73.0,63.0,45.3,99,72,23,29.75,29.70,8,1,10,0.00
2014-6-11,73.2,69.6,66.2,70.7,65.6,59.9,99,88,74,29.84,29.73,14,4,21,0.18
2014-6-12,75.0,67.7,63.7,70.1,66.0,61.7,99,94,76,29.83,29.65,16,4,21,0.14
2014-6-13,87.3,74.7,68.7,74.1,62.6,45.0,99,70,25,29.67,29.51,14,2,24,0.05
2014-6-14,69.4,64.2,52.9,53.6,40.5,27.9,89,45,23,29.91,29.67,14,5,21,0.00
2014-6-15,88.0,66.2,47.3,56.7,39.9,19.1,99,53,10,30.01,29.87,8,1,11,0.00
2014-6-16,84.0,65.1,53.1,69.2,55.5,42.3,99,78,26,29.97,29.81,17,1,26,0.12
2014-6-17,91.4,76.8,66.9,75.9,64.3,52.8,99,72,29,29.91,29.69,11,2,16,0.00
2014-6-18,93.7,80.0,65.7,71.0,51.9,27.5,99,48,10,29.81,29.69,17,3,36,0.64
2014-6-19,83.1,73.8,63.7,71.5,58.1,20.2,99,62,18,29.88,29.75,17,2,34,0.28
2014-6-20,86.7,67.0,47.1,52.3,32.4,9.6,98,38,10,29.89,29.73,10,2,15,0.00
2014-6-21,83.5,70.3,56.8,59.2,36.8,19.6,92,34,10,29.79,29.66,8,2,12,0.00
2014-6-22,89.1,71.5,56.8,67.9,43.3,18.4,99,52,10,29.79,29.71,8,1,12,0.00
2014-6-23,85.6,73.1,58.8,66.4,49.4,35.0,99,51,19,29.90,29.78,12,3,18,0.00
2014-6-24,88.7,76.9,66.9,59.2,52.0,43.7,75,43,27,29.90,29.74,13,4,21,0.01
2014-6-25,88.5,76.9,69.6,70.8,62.4,50.0,99,66,27,29.77,29.59,24,3,35,0.97
2014-6-26,88.3,76.4,67.8,71.2,57.6,28.2,99,60,14,29.80,29.63,12,3,17,0.00
2014-6-27,93.9,76.3,62.6,72.2,53.9,23.6,99,59,10,29.97,29.80,6,1,9,0.00
2014-6-28,89.4,77.0,64.2,69.5,45.8,20.8,99,47,10,30.08,29.97,9,2,12,0.00
2014-6-29,84.2,74.0,61.7,66.3,50.7,33.8,99,52,18,30.03,29.88,14,3,22,0.00
2014-6-30,90.1,79.0,70.9,66.6,51.7,41.6,75,40,24,29.89,29.70,9,2,16,0.00
2014-7-1,93.4,80.5,71.6,73.7,63.6,50.8,99,60,25,29.73,29.58,14,3,20,0.12
2014-7-2,93.0,80.5,70.3,80.5,68.8,48.5,99,72,24,29.70,29.61,17,2,25,0.05
2014-7-3,93.0,75.7,68.0,77.5,66.7,44.3,99,81,19,29.81,29.65,26,2,44,1.25
2014-7-4,77.7,69.3,61.2,69.7,42.4,13.3,99,51,10,29.98,29.80,19,5,29,0.21
2014-7-5,87.1,70.9,57.4,51.6,31.1,12.7,75,30,10,30.05,29.92,12,3,17,0.00
2014-7-6,87.1,71.9,54.1,59.7,40.4,19.6,99,45,10,29.93,29.71,10,1,14,0.00
2014-7-7,93.0,78.1,66.7,70.1,48.0,26.9,99,43,10,29.71,29.52,15,3,25,0.06
2014-7-8,90.9,76.9,67.1,75.0,62.1,45.2,99,70,23,29.61,29.41,30,4,45,1.39
2014-7-9,91.2,76.5,64.9,74.4,56.1,24.0,99,60,10,29.78,29.58,13,2,18,0.01
2014-7-10,86.2,72.9,61.3,72.8,54.2,31.2,99,61,15,29.94,29.78,10,2,15,0.00
2014-7-11,93.0,75.1,60.3,68.5,47.6,22.5,99,53,10,30.02,29.94,9,1,12,0.00
2014-7-12,91.0,76.1,61.5,70.0,59.1,42.8,99,62,20,30.01,29.87,10,2,15,0.00
2014-7-13,87.6,78.0,70.2,71.0,63.0,54.4,99,63,34,29.87,29.64,21,4,40,0.66
2014-7-14,80.2,73.8,68.5,76.0,70.0,64.8,99,89,62,29.73,29.62,8,1,11,0.18
2014-7-15,84.0,73.9,67.3,74.9,66.4,56.2,99,80,42,29.63,29.52,8,1,12,0.02
2014-7-16,86.9,72.5,60.8,69.9,43.0,15.9,99,49,10,29.75,29.57,11,2,17,0.00
2014-7-17,82.4,69.3,56.8,62.3,38.8,16.6,99,46,10,29.95,29.74,13,2,18,0.00
2014-7-18,84.4,67.6,52.3,59.2,40.9,16.5,99,53,10,30.07,29.95,8,1,13,0.00
2014-7-19,82.8,69.4,59.9,64.5,50.8,33.0,99,60,18,30.03,29.94,10,1,13,0.01
2014-7-20,84.9,72.9,63.0,64.1,50.3,21.8,99,56,12,29.96,29.87,10,2,14,0.00
2014-7-21,85.1,73.1,63.0,67.9,60.1,49.8,99,69,30,30.00,29.91,8,2,12,0.00
2014-7-22,92.7,76.9,64.6,70.1,60.9,49.0,99,64,26,29.99,29.82,11,2,17,0.00
2014-7-23,94.8,80.1,69.4,75.4,61.4,41.1,99,58,17,29.83,29.58,14,3,21,0.01
2014-7-24,80.8,73.7,63.9,52.6,30.5,16.3,50,24,10,29.80,29.68,14,5,21,0.00
2014-7-25,86.0,68.1,49.6,52.8,33.5,15.1,97,39,10,29.90,29.77,8,2,12,0.00
2014-7-26,88.0,71.7,57.9,58.3,43.3,21.3,93,46,10,29.83,29.65,9,2,14,0.01
2014-7-27,92.5,77.3,66.4,67.4,51.0,25.5,99,48,10,29.65,29.42,13,3,24,0.18
2014-7-28,81.9,70.0,64.9,68.1,54.8,31.3,99,66,16,29.63,29.33,16,4,31,0.25
2014-7-29,74.8,65.8,57.2,57.6,37.8,12.5,96,44,10,29.81,29.62,9,2,14,0.00
2014-7-30,79.2,65.1,50.9,60.5,44.4,22.7,99,60,13,29.88,29.79,14,2,24,0.20
2014-7-31,83.1,67.7,59.7,64.4,57.0,39.6,99,74,23,29.92,29.83,8,2,14,0.01
2014-8-1,87.3,70.3,60.4,66.7,58.1,45.1,99,71,24,29.99,29.92,12,2,21,0.00
2014-8-2,87.1,73.3,64.8,69.8,55.9,36.4,99,62,19,29.97,29.86,9,2,13,0.00
2014-8-3,80.2,70.4,65.1,71.0,64.2,56.4,99,83,47,29.90,29.82,6,1,11,0.01
2014-8-4,91.4,73.4,63.9,67.9,53.5,23.4,99,62,10,29.92,29.84,10,2,13,0.00
2014-8-5,88.9,67.8,59.7,72.1,58.7,25.4,99,82,10,29.89,29.73,25,1,35,0.01
2014-8-6,86.4,70.8,62.2,65.8,52.4,22.1,99,63,10,29.78,29.70,13,2,20,0.00
2014-8-7,81.9,68.7,55.9,62.3,47.3,22.1,99,58,12,29.88,29.76,12,2,18,0.00
2014-8-8,86.4,67.7,51.1,57.6,42.0,18.4,99,55,10,29.97,29.87,10,1,14,0.00
2014-8-9,89.1,70.3,54.0,60.2,42.1,18.8,99,52,10,29.97,29.88,8,1,12,0.00
2014-8-10,90.0,71.5,54.7,59.8,43.1,20.8,99,52,10,29.97,29.87,8,1,11,0.00
2014-8-11,84.2,71.9,56.5,63.3,42.8,18.4,99,48,10,29.92,29.81,16,4,22,0.00
2014-8-12,72.9,68.4,65.1,70.4,65.6,51.6,99,91,48,29.82,29.55,12,3,19,0.00
2014-8-13,81.0,72.5,65.7,71.3,53.2,32.8,99,59,22,29.69,29.55,18,4,28,0.01
2014-8-14,80.8,65.8,52.5,57.5,35.3,11.9,99,43,10,29.75,29.62,14,3,29,0.00
2014-8-15,75.0,63.1,48.9,53.5,33.9,12.2,99,44,10,29.80,29.74,11,2,16,0.00
2014-8-16,81.7,64.2,48.2,58.9,40.5,15.9,99,57,10,29.84,29.70,8,2,15,0.00
2014-8-17,82.8,69.0,59.0,66.3,49.0,18.8,99,61,10,29.75,29.68,14,2,19,0.00
2014-8-18,88.2,66.2,53.8,61.8,49.7,22.3,99,69,10,29.77,29.62,7,1,11,0.00
2014-8-19,87.1,70.6,57.2,68.0,53.3,35.5,99,62,17,29.72,29.65,7,1,12,0.00
2014-8-20,82.8,71.2,62.8,71.2,64.9,56.5,99,83,42,29.80,29.70,9,1,14,0.00
2014-8-21,87.8,72.7,65.1,74.2,65.2,54.9,99,81,34,29.85,29.76,25,1,37,0.00
2014-8-22,84.9,73.5,66.7,74.2,63.8,52.8,99,75,35,29.83,29.74,11,2,14,0.00
2014-8-23,69.6,66.8,63.5,69.2,62.2,55.6,99,86,63,29.95,29.79,8,1,13,0.00
2014-8-24,87.1,70.6,61.2,68.1,49.1,19.2,99,64,10,29.99,29.91,7,1,12,0.00
2014-8-25,88.0,66.6,56.1,67.7,54.9,22.5,99,76,10,30.02,29.93,6,1,9,0.00
2014-8-26,88.3,70.7,57.6,66.4,52.1,24.3,99,65,10,30.01,29.88,9,2,13,0.00
2014-8-27,92.5,74.4,59.4,67.4,58.4,47.8,99,66,24,29.88,29.69,11,1,15,0.00
2014-8-28,79.3,69.7,60.3,69.2,37.6,14.1,97,39,10,29.93,29.74,14,4,21,0.00
2014-8-29,83.5,65.2,49.1,55.5,38.8,16.0,98,51,10,30.03,29.93,6,1,9,0.00
2014-8-30,77.5,67.4,54.0,61.4,55.5,52.9,99,69,45,30.03,29.90,10,2,14,0.00
2014-8-31,83.3,76.3,70.7,71.5,65.2,55.5,99,70,40,29.91,29.78,11,1,18,0.00
2014-9-1,89.8,77.2,68.9,75.0,65.1,52.4,99,72,29,29.82,29.71,8,1,14,0.00
2014-9-2,92.5,79.6,68.2,78.6,60.4,-49.1,99,63,13,29.76,29.59,11,2,18,0.00
2014-9-3,89.4,73.1,62.2,71.4,51.7,20.8,99,62,10,29.93,29.71,8,1,12,0.00
2014-9-4,89.6,73.9,-6.7,67.6,54.9,-6.8,99,59,10,29.99,29.88,98,2,98,0.05
2014-9-5,90.7,77.3,66.7,71.9,62.6,46.7,99,67,22,29.97,29.79,12,2,17,0.00
2014-9-6,92.3,75.7,64.6,76.5,62.4,36.9,99,72,16,29.82,29.65,17,2,29,0.00
2014-9-7,83.8,67.7,57.0,58.5,38.1,15.6,87,42,10,30.01,29.81,11,2,16,0.00
2014-9-8,57.0,57.0,57.0,53.2,53.2,53.2,87,87,87,30.10,30.00,0,0,3,0.00
2014-9-9,57.0,57.0,57.0,53.2,53.2,53.2,87,87,87,30.06,29.91,0,0,3,0.00
2014-9-10,57.0,57.0,57.0,53.2,53.2,53.2,87,87,87,29.93,29.73,0,0,3,0.00
2014-9-11,57.0,57.0,57.0,53.2,53.2,53.2,87,87,87,29.84,29.62,0,0,3,0.00
2014-9-12,57.0,57.0,57.0,53.2,53.2,53.2,87,87,87,30.02,29.84,0,0,3,0.00
2014-9-13,71.6,58.3,0.0,70.0,52.1,42.8,99,80,37,30.05,29.63,4,0,8,0.00
2014-9-14,71.1,55.5,43.7,51.3,33.3,7.4,98,57,10,30.15,30.00,10,2,16,0.00
2014-9-15,73.8,54.3,42.8,52.5,37.8,10.0,99,67,10,30.08,29.84,8,1,12,0.00
2014-9-16,73.8,59.9,52.5,56.2,41.1,11.8,97,62,10,29.87,29.80,10,2,16,0.00
2014-9-17,76.3,58.7,47.8,56.6,36.4,10.1,99,60,10,29.90,29.77,8,1,11,0.00
2014-9-18,78.8,59.9,45.7,51.9,34.7,11.9,99,54,10,29.97,29.78,11,2,14,0.00
2014-9-19,77.4,60.1,45.0,51.9,32.8,9.4,99,46,10,30.12,29.97,12,3,19,0.00
2014-9-20,81.7,68.6,60.8,50.3,42.2,21.6,65,43,11,30.08,29.82,14,4,21,0.00
2014-9-21,83.3,71.3,57.6,61.3,48.4,35.8,99,50,19,29.84,29.40,13,3,20,0.00
2014-9-22,68.0,61.1,52.2,36.3,22.6,4.8,39,24,10,30.03,29.53,17,6,24,0.00
2014-9-23,77.0,56.0,39.9,45.5,29.5,8.6,89,48,10,30.20,30.02,8,2,11,0.00
2014-9-24,73.9,59.2,43.9,52.5,36.8,13.3,96,55,10,30.35,30.20,12,2,17,0.00
2014-9-25,72.9,60.7,53.4,54.6,48.0,36.8,94,67,27,30.26,30.06,8,1,11,0.00
2014-9-26,80.4,62.3,47.7,57.8,39.9,15.2,99,60,10,30.12,30.00,12,2,18,0.00
2014-9-27,89.1,64.2,46.6,55.7,41.6,18.1,99,59,10,30.10,29.99,8,1,13,0.00
2014-9-28,86.2,64.5,50.5,60.9,44.1,19.3,99,63,10,30.03,29.84,8,1,11,0.00
2014-9-29,80.6,65.4,55.9,59.4,51.4,35.7,99,68,21,29.84,29.70,5,1,8,0.00
2014-9-30,75.9,63.5,54.0,62.3,55.0,46.3,99,78,36,29.78,29.66,14,1,19,0.00
2014-10-1,78.8,64.1,57.2,63.1,53.6,26.9,99,77,17,29.90,29.77,5,1,8,0.00
2014-10-2,73.2,61.0,51.8,61.3,51.0,35.3,99,76,26,29.97,29.89,4,0,8,0.00
2014-10-3,69.1,61.0,50.0,62.2,48.6,40.2,99,69,36,29.91,29.49,14,4,24,0.00
2014-10-4,63.5,56.8,41.2,60.5,32.7,-0.8,99,49,10,29.60,29.39,18,5,31,0.00
2014-10-5,58.8,45.5,34.0,40.2,21.7,-1.2,93,51,10,29.78,29.59,8,1,14,0.00
2014-10-6,72.9,55.8,37.6,42.4,24.9,5.7,92,43,10,29.81,29.66,20,4,30,0.00
2014-10-7,72.9,62.6,55.0,53.2,37.6,10.4,83,45,10,29.81,29.57,14,4,19,0.00
2014-10-8,69.8,60.6,50.9,51.3,33.4,4.1,86,45,10,29.78,29.56,17,4,30,0.00
2014-10-9,65.7,55.9,40.6,41.5,17.7,2.3,82,30,10,29.89,29.78,14,3,26,0.00
2014-10-10,63.9,51.0,38.8,42.4,32.1,16.5,87,54,17,29.95,29.87,3,0,5,0.00
2014-10-11,67.1,53.4,48.6,50.3,38.4,16.0,99,64,17,30.01,29.84,8,1,14,0.00
2014-10-12,68.5,50.7,35.1,44.1,25.4,3.4,97,49,10,30.12,30.01,8,1,11,0.00
2014-10-13,62.6,58.3,54.1,56.3,45.0,23.6,82,63,28,30.09,29.98,5,1,12,0.00
2014-10-14,76.5,70.0,60.8,63.7,53.5,45.9,97,59,36,29.98,29.75,20,5,30,0.00
2014-10-15,73.6,67.3,61.7,67.9,61.6,52.8,99,84,49,29.76,29.55,17,4,29,0.00
2014-10-16,69.6,61.4,55.2,69.4,61.1,55.0,99,99,99,29.55,29.47,3,0,5,0.00
2014-10-17,72.5,61.5,51.3,72.2,61.3,51.0,99,99,99,29.57,29.42,2,0,3,0.00
2014-10-18,64.9,57.9,49.8,64.7,57.6,49.6,99,99,99,29.65,29.38,2,1,4,0.32
2014-10-19,56.7,46.9,36.1,56.4,46.7,35.9,99,99,99,29.89,29.64,2,1,4,0.01
2014-10-20,62.4,47.4,32.7,62.2,47.2,32.5,99,99,99,29.89,29.69,2,0,4,0.00
2014-10-21,66.9,54.9,46.8,66.7,54.7,46.5,99,99,99,29.75,29.62,1,0,2,0.00
2014-10-22,54.1,52.8,49.3,53.9,52.5,49.0,99,99,99,29.84,29.73,3,1,4,0.01
2014-10-23,59.4,54.7,49.6,59.1,54.4,49.4,99,99,99,29.76,29.65,3,1,4,0.00
2014-10-24,72.9,59.9,49.3,72.6,59.7,49.0,99,99,99,29.75,29.65,2,0,4,0.00
2014-10-25,73.4,55.7,37.4,73.2,55.4,37.1,99,99,99,29.75,29.42,2,0,3,0.00
2014-10-26,67.1,57.5,45.7,66.8,57.3,45.4,99,99,99,29.72,29.42,2,1,4,0.26
2014-10-27,71.8,52.1,34.0,71.5,51.8,33.7,99,99,99,29.88,29.72,1,0,2,0.00
2014-10-28,77.4,56.8,41.7,77.1,56.6,41.5,99,99,99,29.81,29.65,2,0,3,0.00
2014-10-29,66.7,55.5,42.1,66.5,55.2,41.8,99,99,99,29.78,29.65,2,0,3,0.01
2014-10-30,56.8,45.2,34.7,56.6,44.9,34.5,99,99,99,29.86,29.77,2,0,2,0.00
2014-10-31,54.7,44.4,35.1,54.4,44.1,34.8,99,99,99,29.84,29.67,1,0,2,0.00
2014-11-1,48.9,45.1,40.5,48.7,44.9,40.2,99,99,99,29.78,29.64,3,1,4,0.00
2014-11-2,47.7,41.9,39.4,47.4,41.7,39.1,99,99,99,30.00,29.76,4,1,5,0.32
2014-11-3,63.0,49.5,38.3,62.7,49.2,38.0,99,99,99,30.06,29.94,2,0,4,0.00
2014-11-4,70.5,57.7,42.8,70.3,57.4,42.5,99,99,99,29.97,29.78,2,0,3,0.00
2014-11-5,63.5,55.8,44.8,63.2,55.5,44.5,99,99,99,29.98,29.78,2,0,2,0.00
2014-11-6,52.9,46.8,44.1,52.6,46.6,43.8,99,99,99,29.91,29.46,1,0,2,0.00
2014-11-7,49.5,43.5,32.7,49.2,43.2,32.5,99,99,99,29.81,29.48,3,1,5,0.06
2014-11-8,49.8,39.2,26.1,49.6,38.9,25.8,99,99,99,29.84,29.66,2,0,3,0.00
2014-11-9,57.6,44.5,31.8,57.3,44.3,31.6,99,99,99,29.82,29.67,2,0,3,0.00
2014-11-10,66.4,48.1,30.6,66.1,47.8,30.3,99,99,99,29.95,29.82,1,0,2,0.00
2014-11-11,67.1,51.7,34.9,66.8,51.5,34.6,99,99,99,29.88,29.66,2,0,3,0.00
2014-11-12,59.2,50.7,35.4,58.9,50.4,35.2,99,99,99,29.94,29.63,2,0,4,0.00
2014-11-13,43.7,36.0,26.1,43.4,35.7,25.8,99,99,99,29.95,29.83,2,0,4,0.00
2014-11-14,39.4,35.1,29.7,39.1,34.8,29.4,99,99,99,30.03,29.84,2,1,3,0.00
2014-11-15,40.6,33.5,24.4,40.4,33.3,24.2,99,99,99,30.19,30.03,2,0,2,0.00
2014-11-16,41.7,35.3,23.4,41.5,35.0,23.1,99,99,99,30.13,29.81,2,0,4,0.01
2014-11-17,41.2,38.1,32.7,40.9,37.9,32.5,99,99,99,29.81,29.32,4,0,6,0.01
2014-11-18,32.7,23.3,19.9,32.5,23.0,19.6,99,99,99,29.95,29.53,4,1,5,1.05
2014-11-19,30.2,24.3,17.2,30.0,24.1,17.0,99,99,99,30.10,29.75,2,0,3,0.00
2014-11-20,42.3,32.7,25.7,42.0,32.5,25.5,99,99,99,29.88,29.68,3,0,4,0.01
2014-11-21,36.3,27.8,18.9,36.1,27.5,18.7,99,99,99,30.31,29.88,2,0,4,0.00
2014-11-22,41.0,23.3,-10.7,40.7,23.1,-10.7,99,99,99,30.31,29.97,2,0,3,0.00
2014-11-23,62.1,46.2,33.4,61.8,46.0,33.2,99,99,99,30.00,29.62,1,0,2,0.00
2014-11-24,70.9,64.0,50.5,70.6,63.8,50.3,99,99,99,29.61,29.27,3,1,4,1.81
2014-11-25,62.1,52.6,44.6,61.8,52.4,44.3,99,99,99,29.99,29.55,3,1,4,0.01
2014-11-26,55.0,41.0,0.0,54.8,54.8,54.8,99,74,99,30.01,29.74,1,0,2,0.00
2014-11-27,0.0,0.0,0.0,54.8,54.8,54.8,0,0,100,29.91,29.77,0,0,0,0.00
2014-11-28,0.0,0.0,0.0,54.8,54.8,54.8,0,0,100,30.07,29.91,0,0,0,0.00
2014-11-29,0.0,0.0,0.0,54.8,54.8,54.8,0,0,100,30.10,29.91,0,0,0,0.00
2014-11-30,0.0,0.0,0.0,54.8,54.8,54.8,0,0,100,29.91,29.81,0,0,0,0.00
2014-12-1,0.0,0.0,0.0,54.8,54.8,54.8,0,0,100,30.32,29.85,0,0,0,0.00
2014-12-2,0.0,0.0,0.0,54.8,54.8,54.8,0,0,100,30.41,30.05,0,0,0,0.00
2014-12-3,0.0,0.0,0.0,54.8,54.8,54.8,0,0,100,30.07,29.81,0,0,0,0.00
2014-12-4,0.0,0.0,0.0,54.8,54.8,54.8,0,0,100,30.30,30.07,0,0,0,0.00
2014-12-5,0.0,0.0,0.0,54.8,54.8,54.8,0,0,100,30.33,30.10,0,0,0,0.00
2014-12-6,88.0,24.3,0.0,70.8,44.5,13.7,99,40,29,30.15,29.60,21,2,28,0.97
2014-12-7,43.2,35.2,27.5,20.0,-7.1,-21.1,48,18,10,30.42,30.15,22,6,34,0.20
2014-12-8,32.7,27.7,20.5,19.2,1.4,-22.5,65,36,10,30.44,30.10,14,2,21,0.00
2014-12-9,43.0,36.8,29.3,30.6,26.7,18.1,91,69,39,30.10,29.68,14,3,24,0.01
2014-12-10,41.2,36.5,28.8,26.9,14.4,5.0,79,42,24,29.68,29.56,19,7,33,0.76
2014-12-11,31.6,29.7,27.5,29.7,23.8,16.6,93,79,54,29.73,29.53,10,3,18,0.00
2014-12-12,39.6,34.2,30.2,24.0,14.7,0.7,75,47,19,29.89,29.72,13,3,21,0.01
2014-12-13,37.2,34.8,32.0,18.8,14.4,8.8,50,43,35,29.90,29.78,11,5,18,0.00
2014-12-14,43.5,39.6,34.0,28.8,21.4,18.4,69,49,37,29.84,29.74,11,3,16,0.00
2014-12-15,41.4,39.8,37.6,25.8,23.3,20.9,62,51,44,29.92,29.83,10,2,14,0.00
2014-12-16,44.6,41.0,37.4,40.9,31.2,25.8,97,68,51,29.86,29.64,8,1,11,0.01
2014-12-17,49.3,41.0,34.9,42.1,20.1,-10.5,99,52,12,29.81,29.66,22,5,41,9.38
2014-12-18,37.8,34.4,32.7,13.0,3.9,-5.1,41,28,16,29.89,29.81,17,6,29,11.13
2014-12-19,38.1,34.7,32.0,11.3,-0.6,-14.6,39,23,10,30.03,29.84,17,6,24,3.99
2014-12-20,34.9,31.5,29.7,5.9,0.0,-5.9,33,25,17,30.10,30.00,13,2,19,0.02
2014-12-21,38.1,29.9,21.6,13.8,4.5,-15.3,71,36,10,30.15,30.07,8,2,11,0.00
2014-12-22,36.9,28.2,16.9,30.3,16.3,7.1,92,64,29,30.13,29.91,4,1,8,0.01
2014-12-23,41.7,37.6,32.4,41.3,36.5,30.3,99,96,92,29.93,29.80,4,0,7,0.00
2014-12-24,54.0,45.9,41.4,53.5,45.6,41.1,99,99,99,29.82,29.25,11,1,17,0.00
2014-12-25,54.0,45.5,40.1,51.9,16.7,1.1,99,34,14,29.98,29.29,21,6,30,1.61
2014-12-26,52.5,37.5,26.6,28.6,13.2,-6.9,88,47,10,30.12,29.97,8,2,14,0.00
2014-12-27,58.8,41.7,28.0,30.6,15.8,-4.9,91,47,10,30.09,29.79,7,1,10,0.00
2014-12-28,70.2,45.2,39.6,69.9,19.2,-5.4,99,40,10,30.12,29.67,11,3,19,0.01
2014-12-29,44.6,35.1,27.7,22.0,3.2,-15.4,70,31,10,30.26,30.12,10,2,13,0.00
2014-12-30,38.1,30.9,26.8,8.1,-13.2,-22.3,37,15,10,30.43,30.26,14,4,19,0.00
2014-12-31,32.5,25.3,15.3,-6.7,-21.5,-28.2,35,12,10,30.38,30.13,15,5,22,0.00
2015-1-1,42.1,31.4,17.8,-10.5,-18.3,-28.3,21,10,10,30.14,29.93,16,4,26,0.00
2015-1-2,42.3,34.1,24.1,8.5,-10.0,-18.0,50,16,10,30.44,30.02,13,3,21,0.00